Flag for Norfolk Island Weather past 2 weeks in Kingston, Norfolk Island

Now
64 °F

Scattered clouds.


Feels Like: 64 °F
Forecast: 60 / 67 °F
Wind: 10 mph from Southeast

Location: Norfolk Island Airport

Current Time: Oct 25, 2014 at 5:07:34 PM

Latest Report: Oct 25, 2014 at 4:30 PM


Visibility: N/A

Pressure: 30.12 "Hg

Humidity: 64%

Dew point: 52 °F

Location of KingstonLocation

Historic Weather in Kingston — Graph

°F

Kingston temperature yesterday

Maximum temperature yesterday: 68 °F (at 11:30 AM)
Minimum temperature yesterday: 59 °F (at 12:30 AM)
Average temperature yesterday: 63 °F

Past Weeks' High & Low Weather Summary

 TemperatureHumidityPressure
High70 °F (Oct 16, 12:00 PM)100% (Oct 17, 5:30 PM)30.21 "Hg (Oct 17, 5:30 PM)
Low55 °F (Oct 14, 2:00 AM)46% (Oct 21, 11:30 AM)29.89 "Hg (Oct 10, 3:30 PM)
Average63 °F71%30.12 "Hg
* Reported Oct 10 3:30 PM — Oct 25 3:30 PM, Kingston, Weather by CustomWeather, © 2014

Note: Actual official high and low records may vary slightly from our data, if they occured in-between our weather recording intervals... More about our weather records

Advertising

Kingston weather history for previous 24 hours

 ConditionsComfort  
Time TempWeatherWind HumidityBarometerVisibility
3:30 PM
Oct 25
66 °FScattered clouds.12 mph60%30.12 "HgN/A
3:00 PM66 °FPassing clouds.13 mph60%30.12 "HgN/A
2:30 PM64 °FPartly sunny.14 mph64%30.12 "HgN/A
2:00 PM66 °FPartly sunny.12 mph64%30.12 "HgN/A
1:30 PM64 °FPartly sunny.10 mph68%30.15 "HgN/A
1:00 PM66 °FPartly sunny.12 mph60%30.15 "HgN/A
12:30 PM66 °FPartly sunny.12 mph60%30.15 "HgN/A
12:00 PM66 °FPartly sunny.9 mph60%30.15 "HgN/A
11:30 AM64 °FPartly sunny.8 mph64%30.18 "HgN/A
10:30 AM63 °FPartly sunny.10 mph68%30.18 "HgN/A
10:00 AM63 °FPartly sunny.12 mph73%30.18 "HgN/A
9:30 AM63 °FPartly sunny.10 mph73%30.18 "HgN/A
9:00 AM63 °FPartly sunny.8 mph73%30.18 "HgN/A
8:30 AM63 °FPartly sunny.10 mph77%30.15 "HgN/A
8:00 AM61 °FPassing clouds.10 mph83%30.15 "HgN/A
7:30 AM61 °FPartly sunny.8 mph83%30.15 "HgN/A
7:00 AM59 °FPartly sunny.10 mph88%30.15 "HgN/A
6:30 AM59 °FCloudy.14 mph88%30.15 "HgN/A
6:00 AM59 °FScattered clouds.5 mph77%30.15 "HgN/A
5:30 AM61 °FScattered clouds.6 mph72%30.12 "HgN/A
5:00 AM61 °FMostly cloudy.6 mph77%30.12 "HgN/A
4:30 AM61 °FOvercast.7 mph77%30.12 "HgN/A
4:00 AM61 °FMostly cloudy.8 mph72%30.12 "HgN/A
3:30 AM61 °FMostly cloudy.7 mph72%30.12 "HgN/A
3:00 AM61 °FOvercast.6 mph77%30.12 "HgN/A
2:30 AM61 °FOvercast.7 mph77%30.12 "HgN/A
2:00 AM61 °FOvercast.7 mph72%30.12 "HgN/A
1:30 AM61 °FOvercast.9 mph77%30.12 "HgN/A
1:00 AM61 °FOvercast.9 mph83%30.12 "HgN/A
12:30 AM61 °FOvercast.10 mph88%30.15 "HgN/A
12:00 AM61 °FOvercast.7 mph77%30.15 "HgN/A
11:30 PM
Oct 24
61 °FPartly cloudy.7 mph72%30.15 "HgN/A
11:00 PM61 °FPartly cloudy.6 mph77%30.15 "HgN/A
10:30 PM61 °FPartly cloudy.2 mph77%30.15 "HgN/A
10:00 PM61 °FMostly cloudy.6 mph77%30.15 "HgN/A
9:30 PM61 °FOvercast.6 mph72%30.15 "HgN/A
9:00 PM61 °FMostly cloudy.6 mph77%30.15 "HgN/A
8:30 PM61 °FMostly cloudy.6 mph83%30.15 "HgN/A
8:00 PM61 °FSprinkles. Overcast.7 mph83%30.15 "HgN/A
7:30 PM61 °FPassing clouds.No wind77%30.12 "HgN/A
7:00 PM61 °FPassing clouds.5 mph72%30.12 "HgN/A
6:30 PM63 °FPassing clouds.6 mph68%30.12 "HgN/A
6:00 PM64 °FScattered clouds.7 mph64%30.12 "HgN/A
5:30 PM64 °FPassing clouds.8 mph68%30.12 "HgN/A
5:00 PM64 °FPassing clouds.9 mph68%30.12 "HgN/A
Weather by CustomWeather, © 2014

See weather overviewHow to use our weather pages